Weather History for KOTG - May, 2013

Change the Weather History Date:

Wednesday, May 29, 2013

  Actual Average Record
Temperature  
Mean Temperature 65 °F -  
Max Temperature 75 °F 67 °F 89 °F (1991)
Min Temperature 55 °F 49 °F 37 °F (1984)
Growing Degree Days 15 (Base 50)    
Moisture  
Dew Point 59 °F    
Average Humidity 79    
Maximum Humidity 94    
Minimum Humidity 65    
Precipitation  
Precipitation 0.28 in - - ()
Sea Level Pressure  
Sea Level Pressure 29.68 in    
Wind  
Wind Speed 11 mph (SE)    
Max Wind Speed 23 mph    
Max Gust Speed 29 mph    
Visibility 6 miles    
Events Thunderstorm    
Averages and records for this station are not official NWS values.
T = Trace of Precipitation, MM = Missing Value Source: NWS Daily Summary

Daily Weather History Graph

Daily Weather History Graph

Search for Another Location

Airport or City:

Trip Planner

Search our weather history database for the weather conditions in past years. The results will help you decide how hot, cold, wet, or windy it might be!

Date:

Astronomy

May. 29, 2013 Rise Set
Actual Time 5:45 AM CDT 8:54 PM CDT
Civil Twilight 5:10 AM CDT 9:29 PM CDT
Nautical Twilight 4:25 AM CDT 10:14 PM CDT
Astronomical Twilight 3:31 AM CDT 11:08 PM CDT
Moon 12:13 AM CDT (5/29) 10:50 AM CDT (5/29)
Length of Visible Light 16h 19m
Length of Day
15h 09m
Waning Gibbous, 73% of the Moon is Illuminated
May 29
Waning Gibbous
May 31
Last Quarter
Jun 8
New
Jun 16
First Quarter
Jun 23
Full

Hourly Weather History & Observations

Time (CDT) Temp. Dew Point Humidity Pressure Visibility Wind Dir Wind Speed Gust Speed Precip Events Conditions
12:15 AM 57.2 °F 51.8 °F 82% 29.78 in 4.0 mi NE 5.8 mph - N/A   Clear
12:35 AM 55.4 °F 51.8 °F 88% 29.77 in 2.5 mi ENE 4.6 mph - N/A   Clear
12:55 AM 55.4 °F 51.8 °F 88% 29.77 in 0.5 mi ESE 6.9 mph - N/A   Unknown
1:15 AM 55.4 °F 51.8 °F 88% 29.77 in 0.2 mi East 5.8 mph - N/A   Mostly Cloudy
1:35 AM 55.4 °F 51.8 °F 88% 29.77 in 0.2 mi SSE 6.9 mph - N/A   Unknown
1:55 AM 55.4 °F 51.8 °F 88% 29.77 in 0.2 mi ESE 5.8 mph - N/A   Overcast
2:15 AM 55.4 °F 51.8 °F 88% 29.76 in 0.2 mi ESE 5.8 mph - N/A   Overcast
2:35 AM 55.4 °F 51.8 °F 88% 29.75 in 0.2 mi East 6.9 mph - N/A   Unknown
2:55 AM 55.4 °F 51.8 °F 88% 29.76 in 0.2 mi East 4.6 mph - N/A   Mostly Cloudy
3:15 AM 55.4 °F 51.8 °F 88% 29.74 in 0.5 mi ENE 6.9 mph - N/A   Overcast
3:35 AM 55.4 °F 51.8 °F 88% 29.73 in 1.5 mi East 6.9 mph - N/A   Overcast
3:55 AM 57.2 °F 53.6 °F 88% 29.77 in 0.5 mi SE 6.9 mph - N/A   Overcast
4:15 AM 57.2 °F 53.6 °F 88% 29.76 in 0.2 mi East 6.9 mph - N/A   Overcast
4:35 AM 57.2 °F 53.6 °F 88% 29.77 in 0.2 mi ESE 8.1 mph - N/A   Overcast
4:55 AM 57.2 °F 53.6 °F 88% 29.75 in 0.2 mi East 9.2 mph - N/A   Overcast
5:15 AM 57.2 °F 53.6 °F 88% 29.75 in 0.2 mi East 6.9 mph - N/A   Overcast
5:35 AM 57.2 °F 55.4 °F 94% 29.75 in 0.2 mi East 6.9 mph - N/A   Overcast
5:55 AM 59.0 °F 55.4 °F 88% 29.76 in 0.2 mi East 8.1 mph - N/A   Overcast
6:15 AM 59.0 °F 55.4 °F 88% 29.75 in 0.2 mi East 9.2 mph - N/A   Overcast
6:35 AM 59.0 °F 55.4 °F 88% 29.75 in 0.2 mi East 11.5 mph - N/A   Overcast
6:55 AM 60.8 °F 55.4 °F 82% 29.75 in 0.2 mi East 12.7 mph - N/A   Overcast
7:15 AM 60.8 °F 55.4 °F 82% 29.75 in 0.2 mi ESE 11.5 mph - N/A   Overcast
7:35 AM 60.8 °F 55.4 °F 82% 29.76 in 0.2 mi ESE 9.2 mph - N/A   Overcast
7:55 AM 60.8 °F 57.2 °F 88% 29.75 in 0.2 mi ESE 9.2 mph - N/A   Overcast
8:15 AM 60.8 °F 57.2 °F 88% 29.74 in 0.2 mi SE 11.5 mph - N/A   Overcast
8:35 AM 62.6 °F 57.2 °F 82% 29.73 in 2.5 mi SE 15.0 mph 18.4 mph N/A   Overcast
8:55 AM 64.4 °F 60.8 °F 88% 29.71 in 5.0 mi SE 17.3 mph - N/A   Mostly Cloudy
9:15 AM 64.4 °F 60.8 °F 88% 29.72 in 8.0 mi SSE 13.8 mph - N/A   Partly Cloudy
9:35 AM 64.4 °F 60.8 °F 88% 29.72 in 9.0 mi SSE 10.4 mph 18.4 mph N/A   Scattered Clouds
9:55 AM 66.2 °F 60.8 °F 83% 29.71 in 10.0 mi SSE 15.0 mph 18.4 mph N/A   Partly Cloudy
10:15 AM 68.0 °F 62.6 °F 83% 29.69 in 10.0 mi SSE 16.1 mph - N/A   Partly Cloudy
10:35 AM 71.6 °F 62.6 °F 73% 29.68 in 10.0 mi SSE 17.3 mph - N/A   Scattered Clouds
10:55 AM 71.6 °F 62.6 °F 73% 29.69 in 10.0 mi South 16.1 mph 24.2 mph N/A   Mostly Cloudy
11:15 AM 71.6 °F 64.4 °F 78% 29.69 in 10.0 mi South 17.3 mph 23.0 mph N/A   Mostly Cloudy
11:35 AM 71.6 °F 64.4 °F 78% 29.69 in 10.0 mi South 18.4 mph 23.0 mph N/A   Mostly Cloudy
11:55 AM 71.6 °F 62.6 °F 73% 29.70 in 10.0 mi SSE 19.6 mph 24.2 mph N/A   Overcast
12:15 PM 71.6 °F 64.4 °F 78% 29.69 in 10.0 mi SSE 17.3 mph 24.2 mph N/A   Mostly Cloudy
12:35 PM 71.6 °F 64.4 °F 78% 29.70 in 10.0 mi SSE 16.1 mph 24.2 mph N/A   Mostly Cloudy
12:55 PM 71.6 °F 62.6 °F 73% 29.68 in 10.0 mi SSE 17.3 mph 23.0 mph N/A   Mostly Cloudy
1:15 PM 71.6 °F 62.6 °F 73% 29.68 in 10.0 mi SSE 12.7 mph 20.7 mph N/A   Scattered Clouds
1:35 PM 71.6 °F 64.4 °F 78% 29.69 in 10.0 mi South 15.0 mph - N/A   Scattered Clouds
1:55 PM 73.4 °F 64.4 °F 73% 29.66 in 10.0 mi South 20.7 mph - N/A   Partly Cloudy
2:15 PM 75.2 °F 66.2 °F 73% 29.67 in 10.0 mi SSW 20.7 mph 25.3 mph N/A   Clear
2:35 PM 75.2 °F 64.4 °F 69% 29.66 in 10.0 mi South 19.6 mph 26.5 mph N/A   Partly Cloudy
2:55 PM 75.2 °F 62.6 °F 65% 29.65 in 10.0 mi South 23.0 mph 26.5 mph N/A   Scattered Clouds
3:15 PM 75.2 °F 62.6 °F 65% 29.64 in 10.0 mi SSE 21.9 mph 27.6 mph N/A   Scattered Clouds
3:35 PM 75.2 °F 62.6 °F 65% 29.62 in 10.0 mi South 18.4 mph 24.2 mph N/A   Partly Cloudy
3:55 PM 75.2 °F 62.6 °F 65% 29.63 in 10.0 mi South 23.0 mph 26.5 mph N/A   Scattered Clouds
4:15 PM 75.2 °F 62.6 °F 65% 29.63 in 10.0 mi SSE 21.9 mph 28.8 mph N/A   Scattered Clouds
4:35 PM 75.2 °F 62.6 °F 65% 29.63 in 10.0 mi South 19.6 mph - N/A   Clear
4:55 PM 75.2 °F 62.6 °F 65% 29.62 in 10.0 mi South 20.7 mph - N/A   Clear
5:15 PM 75.2 °F 62.6 °F 65% 29.60 in 10.0 mi SSE 18.4 mph 25.3 mph N/A   Clear
5:35 PM 73.4 °F 60.8 °F 65% 29.60 in 10.0 mi SSE 18.4 mph 26.5 mph N/A   Partly Cloudy
5:55 PM 75.2 °F 62.6 °F 65% 29.60 in 10.0 mi SSE 20.7 mph 26.5 mph N/A   Partly Cloudy
6:15 PM 73.4 °F 62.6 °F 69% 29.59 in 10.0 mi SSE 20.7 mph 26.5 mph N/A   Mostly Cloudy
6:35 PM 73.4 °F 62.6 °F 69% 29.58 in 10.0 mi SSE 15.0 mph 23.0 mph N/A   Scattered Clouds
6:55 PM 73.4 °F 62.6 °F 69% 29.58 in 10.0 mi SSE 15.0 mph 23.0 mph N/A   Clear
7:15 PM 71.6 °F 62.6 °F 73% 29.58 in 10.0 mi SE 18.4 mph 23.0 mph N/A   Partly Cloudy
7:35 PM 69.8 °F 60.8 °F 73% 29.61 in 10.0 mi SE 19.6 mph 25.3 mph N/A   Scattered Clouds
7:55 PM 69.8 °F 60.8 °F 73% 29.62 in 10.0 mi SSE 17.3 mph 25.3 mph N/A   Overcast
8:15 PM 69.8 °F 62.6 °F 78% 29.63 in 10.0 mi SSE 12.7 mph - N/A   Mostly Cloudy
8:35 PM 69.8 °F 62.6 °F 78% 29.62 in 10.0 mi SSE 12.7 mph - N/A   Mostly Cloudy
8:55 PM 69.8 °F 62.6 °F 78% 29.62 in 10.0 mi SSE 11.5 mph - N/A   Mostly Cloudy
9:15 PM 68.0 °F 60.8 °F 78% 29.60 in 10.0 mi SE 12.7 mph 17.3 mph N/A   Partly Cloudy
9:35 PM 68.0 °F 60.8 °F 78% 29.62 in 10.0 mi SSE 15.0 mph 21.9 mph N/A   Partly Cloudy
9:55 PM 68.0 °F 62.6 °F 83% 29.63 in 9.0 mi South 20.7 mph 27.6 mph 0.01 in Thunderstorm Mostly Cloudy
10:15 PM 64.4 °F 57.2 °F 77% 29.63 in 9.0 mi South 19.6 mph 27.6 mph 0.02 in Thunderstorm Overcast
10:35 PM 62.6 °F 57.2 °F 82% 29.61 in 9.0 mi SSE 5.8 mph - 0.08 in Thunderstorm Mostly Cloudy
10:55 PM 62.6 °F 57.2 °F 82% 29.62 in 5.0 mi SW 11.5 mph - 0.23 in   Overcast
11:15 PM 64.4 °F 57.2 °F 77% 29.61 in 10.0 mi SSE 11.5 mph - 0.04 in   Overcast
11:35 PM 64.4 °F 57.2 °F 77% 29.60 in 10.0 mi South 13.8 mph - 0.04 in   Mostly Cloudy
11:55 PM 64.4 °F 57.2 °F 77% 29.60 in 10.0 mi South 17.3 mph - 0.04 in   Mostly Cloudy